FW8085 Weather Reports


Display with metric or nautical units.
time (UTC)temp
F
wind
direction
speed
MPH
gust
MPH
rain 1hr
in
rain 24hr
in
rain mn
in
humidity
%
barometer
mb
20260506163022 52 306 1.0 6.0 0.00 0.41 0.28 88 1009.7
20260506161512 52 291 3.0 7.0 0.00 0.41 0.28 90 1009.8
20260506160007 52 269 2.0 5.0 0.00 0.41 0.28 91 1009.8
20260506154542 52 277 0.0 4.0 0.00 0.41 0.28 93 1009.8
20260506153030 52 248 1.0 4.0 0.00 0.41 0.28 91 1009.9
20260506151517 52 257 2.0 4.0 0.00 0.41 0.28 91 1009.8
20260506150010 52 239 2.0 6.0 0.00 0.41 0.28 90 1009.9
20260506144545 52 319 0.0 5.0 0.00 0.41 0.28 90 1009.8
20260506143013 52 277 0.0 4.0 0.00 0.41 0.28 92 1009.8
20260506141544 52 279 0.0 4.0 0.00 0.41 0.28 93 1009.8
20260506140010 52 355 2.0 4.0 0.00 0.41 0.28 94 1009.8
20260506134537 52 262 1.0 7.0 0.00 0.41 0.28 96 1009.8
20260506133007 51 306 3.0 7.0 0.00 0.41 0.28 97 1009.8
20260506131544 50 247 1.0 7.0 0.00 0.41 0.28 98 1009.8
20260506130009 51 338 1.0 7.0 0.00 0.41 0.28 98 1009.6
20260506124557 50 315 3.0 10.0 0.00 0.41 0.28 98 1009.6
20260506123024 49 321 1.0 13.0 0.00 0.41 0.28 98 1009.5
20260506121601 50 9 6.0 10.0 0.00 0.41 0.28 98 1009.3
20260506121503 50 5 7.0 10.0 0.00 0.41 0.28 99 1009.3
20260506120050 50 24 7.0 13.0 0.00 0.41 0.28 99 1009.3
20260506114513 49 350 7.0 12.0 0.00 0.41 0.28 98 1009.2
20260506113038 49 5 8.0 14.0 0.01 0.41 0.28 99 1009.1
20260506111512 49 5 9.0 14.0 0.01 0.41 0.28 99 1009.0
20260506110052 49 11 7.0 15.0 0.01 0.41 0.28 99 1009.1
20260506104536 49 355 7.0 10.0 0.01 0.43 0.28 99 1009.0
20260506103057 48 344 3.0 9.0 0.01 0.42 0.28 98 1009.1
20260506101531 48 360 4.0 6.0 0.02 0.42 0.28 98 1009.2
20260506100007 47 309 0.0 6.0 0.02 0.42 0.28 99 1009.0
20260506094555 47 313 2.0 5.0 0.02 0.42 0.28 98 1008.9
20260506093021 47 36 2.0 10.0 0.02 0.41 0.28 99 1008.9
20260506091554 47 273 0.0 6.0 0.02 0.40 0.27 99 1008.8
20260506090029 46 21 1.0 7.0 0.02 0.40 0.27 98 1008.7
20260506084506 46 355 1.0 6.0 0.02 0.39 0.26 98 1008.6
20260506083040 46 259 2.0 6.0 0.02 0.39 0.25 98 1008.4
20260506081515 46 42 1.0 5.0 0.02 0.39 0.25 98 1008.3
20260506073055 46 274 2.0 8.0 0.01 0.37 0.24 98 1008.0
20260506071530 46 128 1.0 7.0 0.02 0.37 0.24 98 1007.8
20260506061504 45 284 1.0 7.0 0.02 0.35 0.22 98 1007.5
20260506050103 45 305 2.0 7.0 0.04 0.33 0.19 98 1007.4
20260506044536 45 9 5.0 13.0 0.03 0.32 0.18 98 1007.5
20260506043008 45 350 3.0 9.0 0.02 0.31 0.17 98 1007.3
20260506041548 45 355 5.0 10.0 0.02 0.30 0.16 98 1007.3
20260506040017 45 23 5.0 10.0 0.02 0.28 0.15 98 1007.2
20260506034557 46 22 4.0 11.0 0.02 0.28 0.15 98 1007.2
20260506033033 46 288 7.0 13.0 0.03 0.28 0.15 98 1007.2
20260506031511 46 13 7.0 13.0 0.03 0.28 0.14 98 1007.2
20260506030040 46 355 8.0 12.0 0.04 0.28 0.13 98 1007.3
20260506024520 46 348 7.0 13.0 0.04 0.27 0.13 98 1007.3
20260506023103 47 346 8.0 12.0 0.05 0.26 0.12 98 1007.3
20260506021536 47 17 6.0 13.0 0.05 0.25 0.11 98 1007.3
20260506020054 47 349 6.0 11.0 0.04 0.24 0.09 98 1007.3
20260506014532 47 355 7.0 15.0 0.04 0.23 0.09 98 1007.3
20260506013013 48 355 6.0 9.0 0.03 0.21 0.07 98 1007.3
20260506011556 48 5 6.0 12.0 0.03 0.20 0.06 98 1007.5
20260506010016 48 360 7.0 12.0 0.02 0.20 0.06 98 1007.5
20260506004601 48 5 7.0 12.0 0.02 0.19 0.05 98 1007.5
20260506003038 48 10 6.0 9.0 0.02 0.18 0.04 98 1007.6
20260506001512 48 14 6.0 12.0 0.02 0.17 0.03 98 1007.7
20260506000049 48 348 7.0 12.0 0.03 0.17 0.03 98 1007.8
20260505234527 48 17 8.0 11.0 0.03 0.17 0.02 98 1007.9
20260505233001 48 11 6.0 14.0 0.02 0.16 0.02 98 1007.9
20260505231549 48 355 11.0 16.0 0.02 0.15 0.01 98 1007.9
20260505230025 48 13 6.0 10.0 0.02 0.14 0.00 98 1008.1
20260505224514 48 5 8.0 18.0 0.02 0.13 0.13 98 1008.1
20260505223041 48 360 8.0 13.0 0.02 0.13 0.13 98 1008.0
20260505221527 48 13 8.0 12.0 0.01 0.13 0.13 98 1008.0
20260505220025 48 24 8.0 12.0 0.01 0.12 0.12 98 1008.1
20260505214507 49 30 8.0 13.0 0.01 0.12 0.12 98 1008.2
20260505213059 49 53 7.0 16.0 0.01 0.12 0.12 98 1008.2
20260505211554 49 17 9.0 14.0 0.02 0.12 0.12 98 1008.3
20260505210030 49 12 6.0 10.0 0.01 0.11 0.11 98 1008.3
20260505204526 49 14 6.0 11.0 0.01 0.11 0.11 98 1008.2
20260505203011 49 19 7.0 11.0 0.02 0.11 0.11 98 1008.3
20260505201604 49 9 8.0 15.0 0.02 0.10 0.10 98 1008.3
20260505200048 49 24 8.0 12.0 0.02 0.10 0.10 98 1008.1
20260505194529 49 15 8.0 13.0 0.02 0.10 0.10 98 1008.0
20260505193024 49 11 7.0 12.0 0.02 0.09 0.09 98 1008.0
20260505191601 49 43 8.0 13.0 0.02 0.09 0.09 98 1007.9
20260505190040 50 22 7.0 10.0 0.03 0.09 0.09 98 1007.8
20260505184535 50 53 9.0 13.0 0.04 0.09 0.09 98 1007.8
20260505183020 50 14 7.0 12.0 0.03 0.08 0.08 98 1007.8
20260505181600 50 22 8.0 14.0 0.03 0.07 0.07 98 1007.8
20260505180051 50 23 8.0 12.0 0.02 0.06 0.06 98 1007.8
20260505174545 50 348 7.0 12.0 0.02 0.07 0.05 98 1007.8
20260505173021 50 15 6.0 10.0 0.02 0.07 0.04 98 1007.8
20260505171510 50 23 7.0 11.0 0.01 0.06 0.03 98 1007.8
20260505170103 50 5 7.0 11.0 0.01 0.06 0.03 98 1007.8
20260505164528 50 5 8.0 14.0 0.01 0.06 0.03 98 1007.9